Regional Weather Roundup
Issued by NWS

Home | Current Version | Previous Version | Graphics & Text | Print | Product List | Glossary Off
Versions: 1 2 3 4 5 6 7 8 9 10 11 12 13 14 15 16 17 18 19 20 21 22 23 24 25 26 27 28 29 30 31 32 33 34 35 36 37 38 39 40 41 42 43 44 45 46 47 48 49 50

099
ASUS43 KLOT 240708
RWRIL

ILLINOIS REGIONAL WEATHER ROUNDUP
NATIONAL WEATHER SERVICE CHICAGO/ROMEOVILLE IL
200 AM CDT SUN JUL 24 2016

NOTE: "FAIR" INDICATES FEW OR NO CLOUDS BELOW 12,000 FEET WITH NO
SIGNIFICANT WEATHER AND/OR OBSTRUCTIONS TO VISIBILITY.

* THESE STATIONS ARE NOT UNDER NWS QUALITY CONTROL. THEY ALSO MAY NOT
  REPORT WEATHER SUCH AS PRECIPITATION OR FOG.

ILZ001-002-007-009-015-016-024-240800-
NORTHWEST ILLINOIS

CITY           SKY/WX    TMP DP  RH WIND       PRES   REMARKS
MOLINE         NOT AVBL
STERLING*      CLOUDY    73  71  93 SE5       29.91F
SAVANNA*       PTCLDY    71  70  95 CALM      29.89F
$$

ILZ003-004-008-010-011-017-018-240800-
NORTH CENTRAL ILLINOIS

CITY           SKY/WX    TMP DP  RH WIND       PRES   REMARKS
ROCKFORD       CLOUDY    72  70  93 S12       29.93S
FREEPORT*      MOCLDY    71  69  94 S8        29.92F
ROCHELLE*      CLOUDY    70  69  97 SE5       29.93F
DE KALB*       CLOUDY    71  70  98 SE10      29.95F
$$

ILZ005-006-012>014-019>023-240800-
NORTHEAST ILLINOIS

CITY           SKY/WX    TMP DP  RH WIND       PRES   REMARKS
CHICAGO-OHARE  CLOUDY    72  70  93 S8        29.94F
CHICAGO-MIDWAY LGT RAIN  73  70  90 S7        29.94F
AURORA         CLOUDY    73  70  90 SE10      29.95F
LANSING*       RAIN      71  69  96 SE8       29.95F
JOLIET*        CLOUDY    73  71  95 SE5       29.96S
WAUKEGAN       CLOUDY    72  69  90 S12       29.91F
DUPAGE AIRPORT CLOUDY    71  69  93 S8        29.94F
WHEELING       MOCLDY    72  70  93 S8        29.94F
MORRIS*        CLOUDY    72  70  95 CALM      29.95S
ROMEOVILLE*    CLOUDY    71  68  92 SE5       29.96S
NORTHERLY ISL    N/A     69  67  93 SE8         N/A
$$

LMZ740>746-240800-
SOUTHERN LAKE MICHIGAN

STATION/POSITION SKY/WX   TEMP    WIND        PRES    VSBY  WAVE
                          AIR SEA DIR/SP/G                  HT/PER
                          (F)     (DEG/KT/KT) (MB)    (MI)  (FT/S)
SOUTHERN BUOY              72 72  180/ 12/ 16 1012.8F         1/ 3
WILMETTE HARBOR            68 68  190/ 10/ 14   N/A           2/ 2
HARRISON CRIB              72     150/ 15/ 17   N/A
BURNHAM HARBOR             70     140/  7/  9   N/A
CALUMET HARBOR             70     100/  4/  5 1015.0F
BURNS HARBOR               71     200/  8/ 17 1016.6F
MICHIGAN CITY              70     170/ 10/ 12   N/A
MICHIGAN CITY 6N           71 73  220/ 10/ 14   N/A           2/ 4
ST. JOSEPH                 71 74  210/ 12/ 16 1014.6F         2/ 3
$$

ILZ025>027-034>036-040-047-049-050-058-095>099-240800-
WEST-CENTRAL ILLINOIS

CITY           SKY/WX    TMP DP  RH WIND       PRES   REMARKS
QUINCY         MOCLDY    82  75  79 S8        29.90F HX  89
GALESBURG*     PTCLDY    78  76  91 SE6       29.91F HX  81
MACOMB*        CLOUDY    78  76  92 S6        29.94S HX  82
JACKSONVILLE*  PTCLDY    80  75  86 SE5       29.93S HX  85
PITTSFIELD*    CLOUDY    80  76  89 S5        29.93F HX  85
$$

ILZ028>032-037-038-041>044-048-051>054-059>061-240800-
CENTRAL ILLINOIS

CITY           SKY/WX    TMP DP  RH WIND       PRES   REMARKS
PONTIAC        MOCLDY    78  78  99 E5        29.96R HX  81
BLOOMINGTON    CLOUDY    78  75  90 S9        29.96F HX  81
DECATUR        CLOUDY    79  75  87 SE6       29.96F FOG     HX  83
PEORIA         CLOUDY    81  77  88 S10       29.92F HX  88
LACON*         CLOUDY    76  74  93 CALM      29.92S
LINCOLN*       PTCLDY    78  77  97 S3        29.94F FOG     HX  81
SPRINGFIELD    CLOUDY    82  76  81 S8        29.94F HX  89
TAYLORVILLE    MOCLDY    76  75  96 NW6       29.96S FOG
$$

ILZ033-039-045-046-055>057-062-063-240800-
EAST-CENTRAL ILLINOIS

CITY           SKY/WX    TMP DP  RH WIND       PRES   REMARKS
CHAMPAIGN      PTCLDY    77  74  90 SE5       29.97F
MATTOON        CLOUDY    78  75  90 S3        29.96F FOG     HX  81
PARIS*         PTCLDY    74  74 100 CALM      29.98F FOG
$$

ILZ079-100>102-240800-
SOUTHWEST ILLINOIS

CITY           SKY/WX    TMP DP  RH WIND       PRES   REMARKS
ALTON          CLEAR     75  74  94 CALM      29.94F
BELLEVILLE     PTCLDY    76  76 100 CALM      29.93F
CAHOKIA*       PTCLDY    78  74  87 CALM      29.93F HX  81
SPARTA*        PTCLDY    78  76  94 SE3       29.96S
$$

ILZ064>066-069>071-074>076-080>082-084>086-088>090-092>094-240800-
SOUTH-CENTRAL ILLINOIS

CITY           SKY/WX    TMP DP  RH WIND       PRES   REMARKS
CARBONDALE     CLEAR     76  75  97 CALM      29.95S FOG
CAIRO*         CLEAR     78  76  96 CALM      29.95R
EFFINGHAM*     CLEAR     75  75 100 SE5       29.98F FOG
MARION         CLEAR     77  77 100 CALM      29.96F FOG
MT. VERNON     PTCLDY    73  70  88 CALM      29.96F
CENTRALIA*     CLEAR     76  76 100 CALM      29.96S FOG
SALEM*         CLEAR     78  75  91 SE5       29.96F FOG     HX  81
METROPOLIS*    CLEAR     76  75  96 CALM      29.96S FOG
$$

ILZ067-068-072-073-078-083-087-091-240800-
SOUTHEAST ILLINOIS

CITY           SKY/WX    TMP DP  RH WIND       PRES   REMARKS
LAWRENCEVILLE  CLEAR     77  76  96 N5        29.97S FOG
FLORA*         CLEAR     78  76  95 N5        29.98R FOG     HX  80
FAIRFIELD*     CLEAR     76  76  99 CALM      29.95S FOG
HARRISBURG*    CLEAR     77  77  99 CALM      29.96S FOG
ROBINSON*        N/A     73  73 100 CALM      29.97F FOG
CARMI*           N/A     76  76 100 CALM      29.96R FOG
$$

ABBREVIATIONS USED IN REMARKS
   TC - TEMPERATURE IN CELSIUS
  WCI - WIND CHILL INDEX
   HX - HEAT INDEX
  VSB - VISIBILITY
$$





USA.gov is the U.S. government's official web portal to all federal, state and local government web resources and services.